Orange City, IA

8:10 AM CDT on June 25, 2017 (GMT -0500)
Orange City Municipal

Weather History for KORC - November, 2012

Change the Weather History Date:

Monday, November 12, 2012

  Actual Average Record
Temperature  
Mean Temperature 24 °F -  
Max Temperature 32 °F 44 °F 66 °F (1952)
Min Temperature 17 °F 28 °F 6 °F (2013)
Degree Days  
Heating Degree Days 40    
Moisture  
Dew Point 13 °F    
Average Humidity 69    
Maximum Humidity 86    
Minimum Humidity 44    
Precipitation  
Precipitation 0.00 in - - ()
Sea Level Pressure  
Sea Level Pressure 30.17 in    
Wind  
Wind Speed 15 mph (West)    
Max Wind Speed 25 mph    
Max Gust Speed 32 mph    
Visibility 10 miles    
Events      
Averages and records for this station are not official NWS values.
T = Trace of Precipitation, MM = Missing Value Source: NWS Daily Summary

Daily Weather History Graph

Daily Weather History Graph

Search for Another Location

Airport or City:

Trip Planner

Search our weather history database for the weather conditions in past years. The results will help you decide how hot, cold, wet, or windy it might be!

Date:

Astronomy

Nov. 12, 2012 Rise Set
Actual Time 7:13 AM CST 5:02 PM CST
Civil Twilight 6:43 AM CST 5:33 PM CST
Nautical Twilight 6:08 AM CST 6:07 PM CST
Astronomical Twilight 5:35 AM CST 6:40 PM CST
Moon 5:38 AM CST (11/12) 4:09 PM CST (11/12)
Length of Visible Light 10h 50m
Length of Day
9h 49m
Waning Crescent, 2% of the Moon is Illuminated
Nov 12
Waning Crescent
Nov 13
New
Nov 20
First Quarter
Nov 28
Full
Dec 6
Last Quarter

Hourly Weather History & Observations

Time (CST) Temp. Windchill Dew Point Humidity Pressure Visibility Wind Dir Wind Speed Gust Speed Precip Events Conditions
12:15 AM 17.6 °F 3.7 °F 14.0 °F 86% 30.06 in 10.0 mi West 13.8 mph - N/A   Clear
12:35 AM 17.6 °F 4.3 °F 14.0 °F 86% 30.06 in 10.0 mi West 12.7 mph - N/A   Clear
12:55 AM 17.6 °F 3.2 °F 14.0 °F 86% 30.06 in 10.0 mi West 15.0 mph - N/A   Clear
1:15 AM 17.6 °F 3.2 °F 14.0 °F 86% 30.06 in 10.0 mi West 15.0 mph - N/A   Clear
1:35 AM 17.6 °F 4.3 °F 14.0 °F 86% 30.06 in 10.0 mi West 12.7 mph - N/A   Clear
1:55 AM 17.6 °F 3.2 °F 12.2 °F 79% 30.05 in 10.0 mi West 15.0 mph 18.4 mph N/A   Clear
2:15 AM 17.6 °F 3.2 °F 12.2 °F 79% 30.06 in 10.0 mi West 15.0 mph - N/A   Clear
2:35 AM 17.6 °F 3.2 °F 12.2 °F 79% 30.06 in 10.0 mi West 15.0 mph - N/A   Clear
2:55 AM 17.6 °F 3.2 °F 12.2 °F 79% 30.06 in 10.0 mi West 15.0 mph - N/A   Clear
3:15 AM 17.6 °F 2.7 °F 12.2 °F 79% 30.06 in 10.0 mi West 16.1 mph 19.6 mph N/A   Clear
3:35 AM 17.6 °F 2.7 °F 12.2 °F 79% 30.05 in 10.0 mi West 16.1 mph - N/A   Clear
3:55 AM 17.6 °F 3.2 °F 12.2 °F 79% 30.05 in 10.0 mi West 15.0 mph - N/A   Clear
4:15 AM 17.6 °F 2.2 °F 12.2 °F 79% 30.05 in 10.0 mi West 17.3 mph 21.9 mph N/A   Clear
4:35 AM 17.6 °F 3.2 °F 12.2 °F 79% 30.06 in 10.0 mi West 15.0 mph - N/A   Clear
4:55 AM 17.6 °F 3.2 °F 12.2 °F 79% 30.06 in 10.0 mi West 15.0 mph - N/A   Clear
5:15 AM 19.4 °F 5.0 °F 12.2 °F 74% 30.07 in 10.0 mi West 16.1 mph - N/A   Clear
5:35 AM 19.4 °F 4.1 °F 12.2 °F 74% 30.07 in 10.0 mi West 18.4 mph 23.0 mph N/A   Clear
5:55 AM 19.4 °F 5.0 °F 12.2 °F 74% 30.07 in 10.0 mi West 16.1 mph 23.0 mph N/A   Clear
6:15 AM 19.4 °F 4.1 °F 12.2 °F 74% 30.07 in 10.0 mi West 18.4 mph 21.9 mph N/A   Clear
6:35 AM 19.4 °F 4.5 °F 12.2 °F 74% 30.08 in 10.0 mi West 17.3 mph - N/A   Clear
6:55 AM 19.4 °F 4.5 °F 12.2 °F 74% 30.08 in 10.0 mi West 17.3 mph - N/A   Clear
7:15 AM 19.4 °F 5.5 °F 14.0 °F 80% 30.09 in 10.0 mi West 15.0 mph - N/A   Clear
7:35 AM 19.4 °F 5.5 °F 14.0 °F 80% 30.10 in 10.0 mi West 15.0 mph 19.6 mph N/A   Clear
7:55 AM 19.4 °F 5.5 °F 14.0 °F 80% 30.10 in 10.0 mi WNW 15.0 mph 19.6 mph N/A   Clear
8:15 AM 19.4 °F 4.5 °F 14.0 °F 80% 30.11 in 10.0 mi WNW 17.3 mph 21.9 mph N/A   Clear
8:35 AM 21.2 °F 6.0 °F 15.8 °F 80% 30.11 in 10.0 mi WNW 19.6 mph 26.5 mph N/A   Clear
8:55 AM 21.2 °F 4.2 °F 12.2 °F 68% 30.11 in 10.0 mi WNW 25.3 mph 31.1 mph N/A   Clear
9:15 AM 23.0 °F 6.6 °F 14.0 °F 68% 30.11 in 10.0 mi WNW 25.3 mph 29.9 mph N/A   Clear
9:55 AM 24.8 °F 9.3 °F 12.2 °F 59% 30.13 in 10.0 mi WNW 24.2 mph 29.9 mph N/A   Clear
10:15 AM 24.8 °F 9.0 °F 12.2 °F 59% 30.14 in 10.0 mi WNW 25.3 mph - N/A   Clear
10:35 AM 24.8 °F 9.6 °F 12.2 °F 59% 30.15 in 10.0 mi WNW 23.0 mph 26.5 mph N/A   Clear
10:55 AM 26.6 °F 11.7 °F 12.2 °F 55% 30.16 in 10.0 mi WNW 24.2 mph 27.6 mph N/A   Clear
11:15 AM 26.6 °F 12.0 °F 12.2 °F 55% 30.16 in 10.0 mi West 23.0 mph 29.9 mph N/A   Clear
11:35 AM 26.6 °F 11.7 °F 10.4 °F 51% 30.17 in 10.0 mi WNW 24.2 mph - N/A   Clear
11:55 AM 28.4 °F 13.8 °F 10.4 °F 47% 30.17 in 10.0 mi WNW 25.3 mph 29.9 mph N/A   Clear
12:15 PM 28.4 °F 13.8 °F 12.2 °F 51% 30.17 in 10.0 mi WNW 25.3 mph 31.1 mph N/A   Clear
12:35 PM 28.4 °F 13.8 °F 12.2 °F 51% 30.17 in 10.0 mi WNW 25.3 mph 29.9 mph N/A   Clear
12:55 PM 30.2 °F 16.5 °F 12.2 °F 47% 30.17 in 10.0 mi WNW 24.2 mph 28.8 mph N/A   Clear
1:15 PM 30.2 °F 16.2 °F 12.2 °F 47% 30.17 in 10.0 mi WNW 25.3 mph 32.2 mph N/A   Clear
1:35 PM 30.2 °F 17.1 °F 14.0 °F 51% 30.18 in 10.0 mi WNW 21.9 mph 29.9 mph N/A   Clear
1:55 PM 30.2 °F 16.8 °F 14.0 °F 51% 30.18 in 10.0 mi WNW 23.0 mph 29.9 mph N/A   Clear
2:15 PM 32.0 °F 18.9 °F 15.8 °F 51% 30.19 in 10.0 mi NW 24.2 mph - N/A   Clear
2:35 PM 32.0 °F 19.8 °F 14.0 °F 48% 30.19 in 10.0 mi WNW 20.7 mph 29.9 mph N/A   Clear
2:55 PM 32.0 °F 18.9 °F 14.0 °F 48% 30.21 in 10.0 mi WNW 24.2 mph - N/A   Clear
3:15 PM 32.0 °F 19.5 °F 12.2 °F 44% 30.21 in 10.0 mi WNW 21.9 mph - N/A   Clear
3:35 PM 32.0 °F 19.5 °F 12.2 °F 44% 30.22 in 10.0 mi WNW 21.9 mph 28.8 mph N/A   Clear
3:55 PM 30.2 °F 18.1 °F 12.2 °F 47% 30.22 in 10.0 mi WNW 18.4 mph 23.0 mph N/A   Clear
4:35 PM 30.2 °F 19.8 °F 14.0 °F 51% 30.24 in 10.0 mi WNW 13.8 mph - N/A   Clear
4:55 PM 28.4 °F 18.0 °F 14.0 °F 55% 30.24 in 10.0 mi WNW 12.7 mph - N/A   Clear
5:15 PM 28.4 °F 18.5 °F 15.8 °F 59% 30.24 in 10.0 mi WNW 11.5 mph - N/A   Clear
5:35 PM 26.6 °F 16.8 °F 15.8 °F 64% 30.25 in 10.0 mi West 10.4 mph - N/A   Clear
5:55 PM 24.8 °F 16.1 °F 15.8 °F 69% 30.26 in 10.0 mi West 8.1 mph - N/A   Clear
6:15 PM 24.8 °F 17.9 °F 15.8 °F 69% 30.26 in 10.0 mi West 5.8 mph - N/A   Clear
6:35 PM 23.0 °F 14.7 °F 15.8 °F 74% 30.27 in 10.0 mi West 6.9 mph - N/A   Clear
6:55 PM 21.2 °F 12.6 °F 15.8 °F 80% 30.27 in 10.0 mi West 6.9 mph - N/A   Clear
7:15 PM 21.2 °F 13.6 °F 15.8 °F 80% 30.28 in 10.0 mi West 5.8 mph - N/A   Clear
7:35 PM 21.2 °F 12.6 °F 15.8 °F 80% 30.28 in 10.0 mi West 6.9 mph - N/A   Clear
7:55 PM 23.0 °F 14.7 °F 15.8 °F 74% 30.28 in 10.0 mi West 6.9 mph - N/A   Clear
8:35 PM 19.4 °F 12.8 °F 14.0 °F 80% 30.29 in 10.0 mi West 4.6 mph - N/A   Clear
8:55 PM 21.2 °F - 14.0 °F 74% 30.29 in 10.0 mi Calm Calm - N/A   Clear
9:15 PM 23.0 °F - 15.8 °F 74% 30.30 in 10.0 mi Calm Calm - N/A   Clear
9:35 PM 21.2 °F - 15.8 °F 80% 30.30 in 10.0 mi Calm Calm - N/A   Clear
9:55 PM 21.2 °F - 14.0 °F 74% 30.31 in 10.0 mi Calm Calm - N/A   Clear
10:15 PM 21.2 °F - 14.0 °F 74% 30.31 in 10.0 mi Calm Calm - N/A   Clear
10:35 PM 19.4 °F - 14.0 °F 80% 30.30 in 10.0 mi Calm Calm - N/A   Clear
10:55 PM 19.4 °F - 14.0 °F 80% 30.30 in 10.0 mi Calm Calm - N/A   Clear
11:15 PM 19.4 °F - 14.0 °F 80% 30.30 in 10.0 mi Calm Calm - N/A   Clear
11:35 PM 19.4 °F 12.8 °F 14.0 °F 80% 30.31 in 10.0 mi South 4.6 mph - N/A   Clear
11:55 PM 19.4 °F 12.8 °F 14.0 °F 80% 30.31 in 10.0 mi South 4.6 mph - N/A   Clear